Newton, NJ

1:29 AM EST on January 19, 2017 (GMT -0500)
Andover

Weather History for K12N - February, 2014

Change the Weather History Date:

Friday, February 28, 2014

  Actual Average (KFWN) Record (KFWN)
Temperature  
Mean Temperature 11 °F -  
Max Temperature 21 °F 41 °F 63 °F (1976)
Min Temperature 1 °F 17 °F -11 °F (1963)
Degree Days  
Heating Degree Days 54    
Moisture  
Dew Point -6 °F    
Average Humidity 48    
Maximum Humidity 80    
Minimum Humidity 29    
Precipitation  
Precipitation 0.00 in - - ()
Sea Level Pressure  
Sea Level Pressure 30.37 in    
Wind  
Wind Speed 3 mph (WNW)    
Max Wind Speed 9 mph    
Max Gust Speed -    
Averages and records for this station are not official NWS values.
T = Trace of Precipitation, MM = Missing Value Source: NWS Daily Summary

Daily Weather History Graph

Daily Weather History Graph

Search for Another Location

Airport or City:

Trip Planner

Search our weather history database for the weather conditions in past years. The results will help you decide how hot, cold, wet, or windy it might be!

Date:

Astronomy

Feb. 28, 2014 Rise Set
Actual Time 6:34 AM EST 5:48 PM EST
Civil Twilight 6:07 AM EST 6:16 PM EST
Nautical Twilight 5:35 AM EST 6:48 PM EST
Astronomical Twilight 5:03 AM EST 7:20 PM EST
Moon 5:47 AM EST (2/28) 5:22 PM EST (2/28)
Length of Visible Light 12h 09m
Length of Day
11h 14m
Waning Crescent, 1% of the Moon is Illuminated
Feb 28
Waning Crescent
Mar 1
New
Mar 8
First Quarter
Mar 16
Full
Mar 23
Last Quarter

Hourly Weather History & Observations

Time (EST) Temp. Windchill Dew Point Humidity Pressure Visibility Wind Dir Wind Speed Gust Speed Precip Events Conditions
12:54 AM 7.0 °F 0.1 °F -15.0 °F 36% 30.18 in - SW 3.5 mph - N/A   Unknown
1:54 AM 6.1 °F -0.9 °F -15.0 °F 38% 30.19 in - NW 3.5 mph - N/A   Unknown
2:54 AM 5.0 °F -2.1 °F -14.1 °F 41% 30.22 in - Variable 3.5 mph - N/A   Unknown
3:54 AM 5.0 °F - -13.0 °F 43% 30.24 in - Calm Calm - N/A   Unknown
4:54 AM 3.0 °F - -11.0 °F 52% 30.27 in - Calm Calm - N/A   Unknown
5:54 AM 1.0 °F - -9.0 °F 63% 30.32 in - Calm Calm - N/A   Unknown
6:54 AM 1.0 °F - -9.0 °F 63% 30.34 in - Calm Calm - N/A   Unknown
7:54 AM 5.0 °F -8.1 °F -11.0 °F 48% 30.37 in - NNW 8.1 mph - N/A   Unknown
8:54 AM 9.0 °F 0.6 °F -8.0 °F 46% 30.40 in - Variable 4.6 mph - N/A   Unknown
9:54 AM 10.9 °F -1.8 °F -7.1 °F 44% 30.42 in - NE 9.2 mph - N/A   Unknown
10:54 AM 14.0 °F 3.9 °F -7.1 °F 39% 30.42 in - Variable 6.9 mph - N/A   Unknown
11:54 AM 17.1 °F 11.7 °F -6.0 °F 36% 30.42 in - Variable 3.5 mph - N/A   Unknown
12:54 PM 18.0 °F 9.8 °F -7.1 °F 33% 30.40 in - NNW 5.8 mph - N/A   Unknown
1:54 PM 19.0 °F 9.0 °F -7.1 °F 31% 30.39 in - SW 8.1 mph - N/A   Unknown
2:54 PM 21.0 °F 12.4 °F -7.1 °F 29% 30.40 in - NNW 6.9 mph - N/A   Unknown
3:54 PM 21.0 °F 14.6 °F -7.1 °F 29% 30.39 in - SW 4.6 mph - N/A   Unknown
4:54 PM 19.9 °F 13.4 °F -8.0 °F 29% 30.39 in - Variable 4.6 mph - N/A   Unknown
5:54 PM 19.0 °F - -4.0 °F 36% 30.41 in - Calm Calm - N/A   Unknown
6:54 PM 16.0 °F - -0.0 °F 49% 30.42 in - Calm Calm - N/A   Unknown
7:54 PM 12.9 °F - 1.9 °F 62% 30.43 in - Calm Calm - N/A   Unknown
8:54 PM 10.0 °F - 3.9 °F 76% 30.43 in - Calm Calm - N/A   Unknown
9:54 PM 9.0 °F - 3.0 °F 77% 30.45 in - Calm Calm - N/A   Unknown
10:54 PM 8.1 °F - 1.9 °F 76% 30.45 in - Calm Calm - N/A   Unknown
11:54 PM 6.1 °F - 1.0 °F 80% 30.44 in - Calm Calm - N/A   Unknown